Time,TemperatureF,DewpointF,PressureIn,WindDirection,WindDirectionDegrees,WindSpeedMPH,WindSpeedGustMPH,Humidity,HourlyPrecipIn,Conditions,Clouds,dailyrainin,SoftwareType,DateUTC
2013-09-02 00:14:00,62.0,60.0,-100.00,NW,320,18.0,25.0,91,-99.99,,,-99.99,,2013-09-02 04:14:00,
2013-09-02 01:43:00,60.0,58.0,-100.00,NW,310,13.0,25.0,96,-99.99,,,-99.99,,2013-09-02 05:43:00,
2013-09-02 03:42:00,58.0,56.0,-100.00,NW,320,18.0,25.0,90,-99.99,,,-99.99,,2013-09-02 07:42:00,
2013-09-02 03:52:00,58.0,56.0,-100.00,NW,320,18.0,25.0,90,-99.99,,,-99.99,,2013-09-02 07:52:00,
2013-09-02 04:02:00,58.0,56.0,-100.00,NW,320,18.0,25.0,90,-99.99,,,-99.99,,2013-09-02 08:02:00,
2013-09-02 04:42:00,58.0,54.0,-100.00,NW,310,20.0,29.0,87,-99.99,,,-99.99,,2013-09-02 08:42:00,
2013-09-02 05:43:00,57.0,54.0,-100.00,NW,310,20.0,27.0,88,-99.99,,,-99.99,,2013-09-02 09:43:00,
2013-09-02 06:13:00,58.0,53.0,-100.00,NW,320,20.0,29.0,83,-99.99,,,-99.99,,2013-09-02 10:13:00,
2013-09-02 06:53:00,58.0,53.0,-100.00,NW,310,22.0,29.0,83,-99.99,,,-99.99,,2013-09-02 10:53:00,
2013-09-02 07:02:00,58.0,53.0,-100.00,NW,310,22.0,29.0,83,-99.99,,,-99.99,,2013-09-02 11:02:00,
2013-09-02 07:22:00,58.0,52.0,-100.00,NW,320,22.0,31.0,82,-99.99,,,-99.99,,2013-09-02 11:22:00,
2013-09-02 07:42:00,58.0,53.0,-100.00,NW,310,22.0,31.0,83,-99.99,,,-99.99,,2013-09-02 11:42:00,
2013-09-02 08:43:00,57.0,53.0,-100.00,NW,320,22.0,29.0,84,-99.99,,,-99.99,,2013-09-02 12:43:00,
2013-09-02 09:21:00,57.0,53.0,-100.00,NW,310,20.0,29.0,86,-99.99,,,-99.99,,2013-09-02 13:21:00,
2013-09-02 09:52:00,56.0,54.0,-100.00,NW,310,22.0,29.0,91,-99.99,,,-99.99,,2013-09-02 13:52:00,
2013-09-02 10:02:00,56.0,54.0,-100.00,NW,310,22.0,29.0,91,-99.99,,,-99.99,,2013-09-02 14:02:00,
2013-09-02 10:11:00,56.0,54.0,-100.00,NW,310,22.0,29.0,91,-99.99,,,-99.99,,2013-09-02 14:11:00,
2013-09-02 10:43:00,57.0,54.0,-100.00,NW,310,20.0,27.0,91,-99.99,,,-99.99,,2013-09-02 14:43:00,
2013-09-02 10:50:00,57.0,55.0,-100.00,NW,310,20.0,27.0,93,-99.99,,,-99.99,,2013-09-02 14:50:00,
2013-09-02 10:52:00,57.0,54.0,-100.00,NW,310,20.0,27.0,91,-99.99,,,-99.99,,2013-09-02 14:52:00,
2013-09-02 11:12:00,56.0,55.0,-100.00,NW,310,22.0,27.0,94,-99.99,,,-99.99,,2013-09-02 15:12:00,
2013-09-02 11:44:00,57.0,55.0,-100.00,NW,310,20.0,27.0,93,-99.99,,,-99.99,,2013-09-02 15:44:00,
2013-09-02 13:20:00,59.0,54.0,-100.00,NW,310,20.0,27.0,84,-99.99,,,-99.99,,2013-09-02 17:20:00,
2013-09-02 13:44:00,58.0,54.0,-100.00,NW,310,20.0,27.0,84,-99.99,,,-99.99,,2013-09-02 17:44:00,
2013-09-02 14:12:00,59.0,54.0,-100.00,NW,310,20.0,27.0,84,-99.99,,,-99.99,,2013-09-02 18:12:00,
2013-09-02 15:20:00,59.0,54.0,-100.00,NW,310,20.0,27.0,85,-99.99,,,-99.99,,2013-09-02 19:20:00,
2013-09-02 15:22:00,58.0,54.0,-100.00,NW,310,18.0,27.0,84,-99.99,,,-99.99,,2013-09-02 19:22:00,
2013-09-02 15:42:00,59.0,54.0,-100.00,NW,310,20.0,27.0,84,-99.99,,,-99.99,,2013-09-02 19:42:00,
2013-09-02 16:12:00,59.0,54.0,-100.00,NW,310,20.0,27.0,85,-99.99,,,-99.99,,2013-09-02 20:12:00,
2013-09-02 16:50:00,59.0,55.0,-100.00,NW,320,20.0,29.0,87,-99.99,,,-99.99,,2013-09-02 20:50:00,
2013-09-02 16:52:00,58.0,55.0,-100.00,NW,320,20.0,27.0,89,-99.99,,,-99.99,,2013-09-02 20:52:00,
2013-09-02 17:44:00,59.0,55.0,-100.00,NW,320,20.0,29.0,87,-99.99,,,-99.99,,2013-09-02 21:44:00,
2013-09-02 18:43:00,59.0,54.0,-100.00,WNW,300,22.0,31.0,85,-99.99,,,-99.99,,2013-09-02 22:43:00,
2013-09-02 19:12:00,58.0,53.0,-100.00,NW,310,20.0,31.0,83,-99.99,,,-99.99,,2013-09-02 23:12:00,
2013-09-02 19:30:00,59.0,53.0,-100.00,NW,320,22.0,31.0,80,-99.99,,,-99.99,,2013-09-02 23:30:00,
2013-09-02 20:10:00,59.0,53.0,-100.00,WNW,300,22.0,36.0,78,-99.99,,,-99.99,,2013-09-03 00:10:00,
2013-09-02 20:11:00,59.0,53.0,-100.00,NW,320,22.0,31.0,80,-99.99,,,-99.99,,2013-09-03 00:11:00,
2013-09-02 20:21:00,59.0,53.0,-100.00,NW,320,22.0,31.0,80,-99.99,,,-99.99,,2013-09-03 00:21:00,
2013-09-02 22:50:00,60.0,53.0,-100.00,WNW,300,22.0,34.0,78,-99.99,,,-99.99,,2013-09-03 02:50:00,
2013-09-02 23:45:00,60.0,53.0,-100.00,WNW,300,22.0,34.0,78,-99.99,,,-99.99,,2013-09-03 03:45:00,